Time,TemperatureF,DewpointF,PressureIn,WindDirection,WindDirectionDegrees,WindSpeedMPH,WindSpeedGustMPH,Humidity,HourlyPrecipIn,Conditions,Clouds,dailyrainin,SoftwareType,DateUTC
2013-04-12 00:03:00,34.0,15.0,30.14,NNE,18,12.0,18.0,46,0.00,,,0.00,,2013-04-12 04:03:00,
2013-04-12 00:13:00,34.0,15.0,30.14,NNE,18,12.0,18.0,46,0.00,,,0.00,,2013-04-12 04:13:00,
2013-04-12 00:23:00,35.0,16.0,30.16,NNE,24,10.0,17.0,45,0.00,,,0.00,,2013-04-12 04:23:00,
2013-04-12 00:33:00,34.0,16.0,30.17,NNE,22,7.0,12.0,47,0.00,,,0.00,,2013-04-12 04:33:00,
2013-04-12 00:43:00,34.0,16.0,30.17,NNE,22,7.0,12.0,47,0.00,,,0.00,,2013-04-12 04:43:00,
2013-04-12 00:52:00,34.0,16.0,30.17,NNW,348,8.0,16.0,48,0.00,,,0.00,,2013-04-12 04:52:00,
2013-04-12 01:03:00,34.0,16.0,30.19,North,9,7.0,11.0,48,0.00,,,0.00,,2013-04-12 05:03:00,
2013-04-12 01:12:00,34.0,16.0,30.19,North,9,7.0,11.0,48,0.00,,,0.00,,2013-04-12 05:12:00,
2013-04-12 01:23:00,34.0,16.0,30.19,NNE,25,5.0,13.0,47,0.00,,,0.00,,2013-04-12 05:23:00,
2013-04-12 01:32:00,34.0,16.0,30.19,NNE,15,9.0,19.0,48,0.00,,,0.00,,2013-04-12 05:32:00,
2013-04-12 01:42:00,34.0,16.0,30.19,NNE,15,9.0,19.0,48,0.00,,,0.00,,2013-04-12 05:42:00,
2013-04-12 01:52:00,34.0,17.0,30.19,North,355,5.0,16.0,50,0.00,,,0.00,,2013-04-12 05:52:00,
2013-04-12 02:02:00,33.0,15.0,30.19,NNE,27,7.0,14.0,48,0.00,,,0.00,,2013-04-12 06:02:00,
2013-04-12 02:12:00,33.0,15.0,30.19,NNE,27,7.0,14.0,48,0.00,,,0.00,,2013-04-12 06:12:00,
2013-04-12 02:22:00,33.0,16.0,30.19,NE,42,6.0,13.0,50,0.00,,,0.00,,2013-04-12 06:22:00,
2013-04-12 02:32:00,32.0,15.0,30.19,NE,51,5.0,14.0,50,0.00,,,0.00,,2013-04-12 06:32:00,
2013-04-12 02:42:00,32.0,15.0,30.19,NE,51,5.0,14.0,50,0.00,,,0.00,,2013-04-12 06:42:00,
2013-04-12 02:52:00,32.0,16.0,30.19,NNE,15,9.0,12.0,52,0.00,,,0.00,,2013-04-12 06:52:00,
2013-04-12 03:02:00,32.0,17.0,30.19,North,360,4.0,10.0,53,0.00,,,0.00,,2013-04-12 07:02:00,
2013-04-12 03:12:00,32.0,17.0,30.19,North,360,4.0,10.0,53,0.00,,,0.00,,2013-04-12 07:12:00,
2013-04-12 03:22:00,32.0,18.0,30.19,NNE,22,5.0,8.0,55,0.00,,,0.00,,2013-04-12 07:22:00,
2013-04-12 03:32:00,32.0,17.0,30.20,North,360,3.0,8.0,54,0.00,,,0.00,,2013-04-12 07:32:00,
2013-04-12 03:42:00,32.0,17.0,30.20,North,360,3.0,8.0,54,0.00,,,0.00,,2013-04-12 07:42:00,
2013-04-12 03:52:00,32.0,16.0,30.20,North,5,5.0,9.0,51,0.00,,,0.00,,2013-04-12 07:52:00,
2013-04-12 04:03:00,33.0,16.0,30.21,NNE,26,7.0,12.0,50,0.00,,,0.00,,2013-04-12 08:03:00,
2013-04-12 04:12:00,33.0,16.0,30.21,NNE,26,7.0,12.0,50,0.00,,,0.00,,2013-04-12 08:12:00,
2013-04-12 04:22:00,33.0,16.0,30.21,NNE,32,6.0,13.0,49,0.00,,,0.00,,2013-04-12 08:22:00,
2013-04-12 04:32:00,32.0,16.0,30.22,NNE,18,3.0,9.0,52,0.00,,,0.00,,2013-04-12 08:32:00,
2013-04-12 04:42:00,32.0,16.0,30.22,NNE,18,3.0,9.0,52,0.00,,,0.00,,2013-04-12 08:42:00,
2013-04-12 04:52:00,32.0,18.0,30.22,NNE,28,6.0,8.0,56,0.00,,,0.00,,2013-04-12 08:52:00,
2013-04-12 05:02:00,32.0,18.0,30.22,NNE,26,3.0,7.0,55,0.00,,,0.00,,2013-04-12 09:02:00,
2013-04-12 05:12:00,32.0,18.0,30.22,NNE,26,3.0,7.0,55,0.00,,,0.00,,2013-04-12 09:12:00,
2013-04-12 05:22:00,32.0,19.0,30.22,NNE,19,4.0,8.0,57,0.00,,,0.00,,2013-04-12 09:22:00,
2013-04-12 05:33:00,30.0,17.0,30.22,North,355,6.0,9.0,59,0.00,,,0.00,,2013-04-12 09:33:00,
2013-04-12 05:43:00,30.0,17.0,30.22,North,355,6.0,9.0,59,0.00,,,0.00,,2013-04-12 09:43:00,
2013-04-12 05:52:00,31.0,18.0,30.22,North,9,7.0,11.0,57,0.00,,,0.00,,2013-04-12 09:52:00,
2013-04-12 06:03:00,31.0,18.0,30.22,North,9,7.0,11.0,57,0.00,,,0.00,,2013-04-12 10:03:00,
2013-04-12 06:13:00,32.0,17.0,30.23,North,5,5.0,11.0,54,0.00,,,0.00,,2013-04-12 10:13:00,
2013-04-12 06:23:00,32.0,17.0,30.23,North,5,5.0,11.0,54,0.00,,,0.00,,2013-04-12 10:23:00,
2013-04-12 06:34:00,32.0,18.0,30.24,NNE,32,7.0,10.0,55,0.00,,,0.00,,2013-04-12 10:34:00,
2013-04-12 06:42:00,32.0,18.0,30.24,NNE,32,7.0,10.0,55,0.00,,,0.00,,2013-04-12 10:42:00,
2013-04-12 06:52:00,32.0,17.0,30.24,NNE,18,6.0,10.0,53,0.00,,,0.00,,2013-04-12 10:52:00,
2013-04-12 07:03:00,33.0,18.0,30.24,NNE,15,4.0,13.0,54,0.00,,,0.00,,2013-04-12 11:03:00,
2013-04-12 07:13:00,33.0,18.0,30.24,NNE,15,4.0,13.0,54,0.00,,,0.00,,2013-04-12 11:13:00,
2013-04-12 07:22:00,33.0,18.0,30.23,NNE,25,6.0,10.0,53,0.00,,,0.00,,2013-04-12 11:22:00,
2013-04-12 07:32:00,33.0,18.0,30.21,NNE,23,8.0,12.0,54,0.00,,,0.00,,2013-04-12 11:32:00,
2013-04-12 07:42:00,33.0,18.0,30.21,NNE,23,8.0,12.0,54,0.00,,,0.00,,2013-04-12 11:42:00,
2013-04-12 07:52:00,33.0,18.0,30.22,NE,36,5.0,13.0,54,0.00,,,0.00,,2013-04-12 11:52:00,
2013-04-12 08:03:00,34.0,18.0,30.23,NNE,32,7.0,14.0,52,0.00,,,0.00,,2013-04-12 12:03:00,
2013-04-12 08:13:00,34.0,18.0,30.23,NNE,32,7.0,14.0,52,0.00,,,0.00,,2013-04-12 12:13:00,
2013-04-12 08:22:00,34.0,17.0,30.23,NE,46,8.0,11.0,50,0.00,,,0.00,,2013-04-12 12:22:00,
2013-04-12 08:33:00,34.0,18.0,30.22,NE,40,5.0,11.0,52,0.00,,,0.00,,2013-04-12 12:33:00,
2013-04-12 08:42:00,34.0,18.0,30.22,NE,40,5.0,11.0,52,0.00,,,0.00,,2013-04-12 12:42:00,
2013-04-12 08:52:00,34.0,17.0,30.23,NE,34,6.0,9.0,50,0.00,,,0.00,,2013-04-12 12:52:00,
2013-04-12 09:03:00,35.0,20.0,30.22,NE,46,6.0,10.0,54,0.00,,,0.00,,2013-04-12 13:03:00,
2013-04-12 09:12:00,35.0,20.0,30.22,NE,46,6.0,10.0,54,0.00,,,0.00,,2013-04-12 13:12:00,
2013-04-12 09:22:00,35.0,18.0,30.21,NNE,33,4.0,10.0,50,0.00,,,0.00,,2013-04-12 13:22:00,
2013-04-12 09:32:00,36.0,19.0,30.20,NE,44,5.0,8.0,50,0.00,,,0.00,,2013-04-12 13:32:00,
2013-04-12 09:42:00,36.0,19.0,30.20,NE,44,5.0,8.0,50,0.00,,,0.00,,2013-04-12 13:42:00,
2013-04-12 09:52:00,36.0,18.0,30.19,NE,38,1.0,9.0,48,0.00,,,0.00,,2013-04-12 13:52:00,
2013-04-12 10:03:00,36.0,19.0,30.18,NE,49,4.0,8.0,50,0.00,,,0.00,,2013-04-12 14:03:00,
2013-04-12 10:13:00,36.0,19.0,30.18,NE,49,4.0,8.0,50,0.00,,,0.00,,2013-04-12 14:13:00,
2013-04-12 10:23:00,36.0,19.0,30.17,NE,49,4.0,9.0,50,0.00,,,0.00,,2013-04-12 14:23:00,
2013-04-12 10:33:00,37.0,19.0,30.18,East,94,4.0,7.0,48,0.00,,,0.00,,2013-04-12 14:33:00,
2013-04-12 10:42:00,37.0,19.0,30.18,East,94,4.0,7.0,48,0.00,,,0.00,,2013-04-12 14:42:00,
2013-04-12 10:53:00,37.0,21.0,30.17,ENE,59,4.0,8.0,53,0.00,,,0.00,,2013-04-12 14:53:00,
2013-04-12 11:03:00,37.0,20.0,30.18,ENE,62,2.0,7.0,50,0.00,,,0.00,,2013-04-12 15:03:00,
2013-04-12 11:12:00,37.0,20.0,30.18,ENE,62,2.0,7.0,50,0.00,,,0.00,,2013-04-12 15:12:00,
2013-04-12 11:22:00,38.0,22.0,30.18,East,86,3.0,6.0,53,0.00,,,0.00,,2013-04-12 15:22:00,
2013-04-12 11:33:00,37.0,21.0,30.18,SSE,148,3.0,10.0,52,0.00,,,0.00,,2013-04-12 15:33:00,
2013-04-12 11:43:00,37.0,21.0,30.18,SSE,148,3.0,10.0,52,0.00,,,0.00,,2013-04-12 15:43:00,
2013-04-12 11:53:00,37.0,23.0,30.17,East,101,4.0,11.0,56,0.00,,,0.00,,2013-04-12 15:53:00,
2013-04-12 12:04:00,38.0,25.0,30.16,ENE,68,6.0,11.0,59,0.00,,,0.00,,2013-04-12 16:04:00,
2013-04-12 12:13:00,38.0,25.0,30.16,ENE,68,6.0,11.0,59,0.00,,,0.00,,2013-04-12 16:13:00,
2013-04-12 12:23:00,38.0,25.0,30.15,East,93,8.0,15.0,59,0.00,,,0.00,,2013-04-12 16:23:00,
2013-04-12 12:33:00,38.0,26.0,30.14,East,86,4.0,14.0,62,0.00,,,0.00,,2013-04-12 16:33:00,
2013-04-12 12:42:00,38.0,26.0,30.14,East,86,4.0,14.0,62,0.00,,,0.00,,2013-04-12 16:42:00,
2013-04-12 12:52:00,38.0,26.0,30.14,ESE,103,8.0,15.0,62,0.00,,,0.00,,2013-04-12 16:52:00,
2013-04-12 13:04:00,38.0,27.0,30.14,East,91,8.0,14.0,63,0.00,,,0.00,,2013-04-12 17:04:00,
2013-04-12 13:12:00,38.0,27.0,30.14,East,91,8.0,14.0,63,0.00,,,0.00,,2013-04-12 17:12:00,
2013-04-12 13:23:00,38.0,27.0,30.14,East,86,10.0,14.0,64,0.00,,,0.00,,2013-04-12 17:23:00,
2013-04-12 13:33:00,38.0,28.0,30.13,East,91,7.0,15.0,67,0.00,,,0.00,,2013-04-12 17:33:00,
2013-04-12 13:45:00,38.0,28.0,30.13,East,91,7.0,15.0,67,0.00,,,0.00,,2013-04-12 17:45:00,
2013-04-12 14:10:00,38.0,28.0,30.12,East,97,6.0,13.0,67,0.00,,,0.00,,2013-04-12 18:10:00,
2013-04-12 15:27:00,36.0,31.0,30.10,ESE,104,9.0,15.0,82,0.00,,,0.00,,2013-04-12 19:27:00,
2013-04-12 15:33:00,36.0,32.0,30.10,ESE,121,7.0,15.0,84,0.01,,,0.01,,2013-04-12 19:33:00,
2013-04-12 15:43:00,36.0,32.0,30.10,ESE,121,7.0,15.0,84,0.01,,,0.01,,2013-04-12 19:43:00,
2013-04-12 15:52:00,35.0,32.0,30.08,ENE,73,5.0,13.0,87,0.02,,,0.02,,2013-04-12 19:52:00,
2013-04-12 16:02:00,35.0,32.0,30.07,East,80,12.0,19.0,87,0.05,,,0.05,,2013-04-12 20:02:00,
2013-04-12 16:12:00,35.0,32.0,30.07,East,80,12.0,19.0,87,0.05,,,0.05,,2013-04-12 20:12:00,
2013-04-12 16:22:00,34.0,30.0,30.07,ENE,77,10.0,21.0,84,0.06,,,0.06,,2013-04-12 20:22:00,
2013-04-12 16:32:00,34.0,30.0,30.03,East,88,10.0,19.0,86,0.07,,,0.08,,2013-04-12 20:32:00,
2013-04-12 16:42:00,34.0,30.0,30.03,East,88,10.0,19.0,86,0.07,,,0.08,,2013-04-12 20:42:00,
2013-04-12 16:52:00,35.0,31.0,30.09,ESE,115,5.0,16.0,86,0.08,,,0.10,,2013-04-12 20:52:00,
2013-04-12 17:02:00,34.0,31.0,30.09,ESE,107,5.0,10.0,87,0.04,,,0.10,,2013-04-12 21:02:00,
2013-04-12 17:12:00,34.0,31.0,30.09,ESE,107,5.0,10.0,87,0.04,,,0.10,,2013-04-12 21:12:00,
2013-04-12 17:22:00,34.0,31.0,30.08,East,95,3.0,9.0,88,0.04,,,0.10,,2013-04-12 21:22:00,
2013-04-12 17:33:00,34.0,31.0,30.08,East,100,7.0,11.0,90,0.02,,,0.10,,2013-04-12 21:33:00,
2013-04-12 17:43:00,34.0,31.0,30.08,East,100,7.0,11.0,90,0.02,,,0.10,,2013-04-12 21:43:00,
2013-04-12 17:52:00,33.0,30.0,30.08,East,81,7.0,15.0,89,0.00,,,0.10,,2013-04-12 21:52:00,
2013-04-12 18:02:00,33.0,30.0,30.08,East,79,5.0,11.0,90,0.01,,,0.11,,2013-04-12 22:02:00,
2013-04-12 18:13:00,33.0,30.0,30.08,East,79,5.0,11.0,90,0.01,,,0.11,,2013-04-12 22:13:00,
2013-04-12 18:22:00,33.0,31.0,30.07,ENE,58,7.0,9.0,91,0.01,,,0.11,,2013-04-12 22:22:00,
2013-04-12 18:33:00,33.0,31.0,30.06,ENE,78,5.0,11.0,92,0.01,,,0.11,,2013-04-12 22:33:00,
2013-04-12 18:42:00,33.0,31.0,30.06,ENE,78,5.0,11.0,92,0.01,,,0.11,,2013-04-12 22:42:00,
2013-04-12 18:52:00,33.0,31.0,30.06,ENE,74,4.0,12.0,92,0.01,,,0.11,,2013-04-12 22:52:00,
2013-04-12 19:04:00,33.0,31.0,30.05,ENE,75,7.0,15.0,93,0.00,,,0.11,,2013-04-12 23:04:00,
2013-04-12 19:12:00,33.0,31.0,30.05,ENE,75,7.0,15.0,93,0.00,,,0.11,,2013-04-12 23:12:00,
2013-04-12 19:22:00,33.0,31.0,30.04,East,83,6.0,11.0,93,0.00,,,0.11,,2013-04-12 23:22:00,
2013-04-12 19:32:00,32.0,30.0,30.03,NE,49,6.0,12.0,93,0.00,,,0.11,,2013-04-12 23:32:00,
2013-04-12 19:42:00,32.0,30.0,30.03,NE,49,6.0,12.0,93,0.00,,,0.11,,2013-04-12 23:42:00,
2013-04-12 19:52:00,32.0,30.0,30.03,ENE,65,6.0,19.0,93,0.00,,,0.11,,2013-04-12 23:52:00,
2013-04-12 20:02:00,32.0,30.0,30.02,NE,55,8.0,15.0,93,0.00,,,0.11,,2013-04-13 00:02:00,
2013-04-12 20:12:00,32.0,30.0,30.02,NE,55,8.0,15.0,93,0.00,,,0.11,,2013-04-13 00:12:00,
2013-04-12 20:22:00,33.0,31.0,30.01,East,93,11.0,18.0,93,0.00,,,0.11,,2013-04-13 00:22:00,
2013-04-12 20:32:00,33.0,31.0,30.00,East,90,11.0,21.0,93,0.00,,,0.11,,2013-04-13 00:32:00,
2013-04-12 20:42:00,33.0,31.0,30.00,East,90,11.0,21.0,93,0.00,,,0.11,,2013-04-13 00:42:00,
2013-04-12 20:52:00,33.0,31.0,29.99,East,80,11.0,21.0,94,0.00,,,0.11,,2013-04-13 00:52:00,
2013-04-12 21:02:00,33.0,31.0,29.98,East,84,10.0,19.0,94,0.00,,,0.11,,2013-04-13 01:02:00,
2013-04-12 21:13:00,33.0,31.0,29.98,East,84,10.0,19.0,94,0.00,,,0.11,,2013-04-13 01:13:00,
2013-04-12 21:22:00,33.0,31.0,29.98,East,96,9.0,21.0,94,0.00,,,0.11,,2013-04-13 01:22:00,
2013-04-12 21:33:00,33.0,31.0,29.98,NE,39,13.0,21.0,94,0.00,,,0.11,,2013-04-13 01:33:00,
2013-04-12 21:43:00,33.0,31.0,29.98,NE,39,13.0,21.0,94,0.00,,,0.11,,2013-04-13 01:43:00,
2013-04-12 21:52:00,33.0,31.0,29.97,East,80,8.0,17.0,94,0.00,,,0.11,,2013-04-13 01:52:00,
2013-04-12 22:02:00,33.0,31.0,29.95,ENE,62,11.0,23.0,94,0.00,,,0.11,,2013-04-13 02:02:00,
2013-04-12 22:12:00,33.0,31.0,29.95,ENE,62,11.0,23.0,94,0.00,,,0.11,,2013-04-13 02:12:00,
2013-04-12 22:23:00,33.0,31.0,29.95,ESE,109,10.0,25.0,94,0.00,,,0.11,,2013-04-13 02:23:00,
2013-04-12 22:33:00,33.0,31.0,29.93,NE,38,13.0,25.0,94,0.00,,,0.11,,2013-04-13 02:33:00,
2013-04-12 22:42:00,33.0,31.0,29.93,NE,38,13.0,25.0,94,0.00,,,0.11,,2013-04-13 02:42:00,
2013-04-12 23:03:00,33.0,31.0,29.93,ESE,117,10.0,21.0,94,0.00,,,0.11,,2013-04-13 03:03:00,
2013-04-12 23:12:00,33.0,31.0,29.93,ESE,117,10.0,21.0,94,0.00,,,0.11,,2013-04-13 03:12:00,
2013-04-12 23:23:00,33.0,31.0,29.92,East,87,8.0,19.0,94,0.00,,,0.11,,2013-04-13 03:23:00,
2013-04-12 23:33:00,33.0,31.0,29.91,ENE,66,7.0,18.0,94,0.01,,,0.12,,2013-04-13 03:33:00,
2013-04-12 23:42:00,33.0,31.0,29.91,ENE,66,7.0,18.0,94,0.01,,,0.12,,2013-04-13 03:42:00,
2013-04-12 23:53:00,33.0,31.0,29.91,ENE,66,7.0,18.0,94,0.01,,,0.12,,2013-04-13 03:53:00,